Regional Weather Roundup
Issued by NWS

Home | Current Version | Previous Version | Graphics & Text | Print | Product List | Glossary On
Versions: 1 2 3 4 5 6 7 8 9 10 11 12 13 14 15 16 17 18 19 20 21 22 23 24 25 26 27 28 29 30 31 32 33 34 35 36 37 38 39 40 41 42 43 44 45 46 47 48 49 50
301
ASUS44 KJAN 300210
RWRMS

MISSISSIPPI HOURLY WEATHER ROUNDUP
NATIONAL WEATHER SERVICE JACKSON MS
900 PM CDT TUE JUL 29 2014

NOTE: "FAIR: INDICATES FEW OR NO CLOUDS BELOW 12,000 FEET WITH NO
SIGNIFICANT WEATHER AND/OR OBSTRUCTIONS TO VISIBILITY.

MSZ001>002-007>008-010>013-018>021-025>028-034>036-300300-
NORTHWEST MISSISSIPPI

CITY           SKY/WX    TMP DP  RH WIND       PRES   REMARKS
CLARKSDALE     FAIR      66  63  88 N5        30.10S
CLEVELAND      FAIR      68  63  82 NE3       30.08S
GREENWOOD      PTCLDY    69  62  78 N5        30.08S
GREENVILLE     CLEAR     71  62  73 N6        30.08R
GRENADA        FAIR      64  61  88 CALM      30.09R
OLIVE BRANCH   CLEAR     70  57  64 NE5       30.09S
OXFORD         FAIR      64  59  82 CALM      30.11S
TUNICA         CLEAR     68  63  83 CALM      30.10S
$$

MSZ003>006-009-014>017-022>024-029>033-037>039-300300-
NORTHEAST MISSISSIPPI

CITY           SKY/WX    TMP DP  RH WIND       PRES   REMARKS
BELMONT        FAIR      67  57  69 CALM      30.09S
COLUMBUS AFB   CLEAR     69  56  64 N7        30.08S
CORINTH        FAIR      63  59  88 CALM      30.09S
GOLDN TRIANGLE CLEAR     66  55  68 N6        30.08S
STARKVILLE     FAIR      70  57  64 CALM      30.07S
TUPELO         CLEAR     70  57  63 CALM      30.08S
$$

MSZ040-058-300300-
CENTRAL MISSISSIPPI

CITY           SKY/WX    TMP DP  RH WIND       PRES   REMARKS
JACKSON INTL   CLEAR     72  60  66 N7        30.06S
JACKSON HAWKNS CLEAR     75  58  55 N5        30.07R
MERIDIAN KEY   CLEAR     74  57  55 N10       30.05R
MERIDIAN NAS   CLEAR     73  57  57 N7        30.06R
RAYMOND        FAIR      72  66  83 CALM      30.07R
VICKSBURG      CLEAR     72  62  71 N6        30.06S
$$

MSZ059>079-300300-
SOUTH MISSISSIPPI

CITY           SKY/WX    TMP DP  RH WIND       PRES   REMARKS
BROOKHAVEN     FAIR      75  66  73 N5        30.07S
COLUMBIA       MOCLDY    79  66  65 N7        30.02S
HATTIESBURG    CLEAR     80  66  62 N5        30.02R
MCCOMB         CLEAR     80  65  59 N8        30.04R
NATCHEZ        CLEAR     75  66  73 N7        30.06R
PINE BELT      CLEAR     75  64  69 N8        30.05R
$$

MSZ080>082-300300-
COASTAL MISSISSIPPI

CITY           SKY/WX    TMP DP  RH WIND       PRES   REMARKS
BAY ST LOUIS   CLEAR    N/A N/A N/A CALM      30.01R
BILOXI         CLEAR     82  67  60 CALM      29.99R
PASCAGOULA     PTCLDY    74  71  91 CALM      29.99R
GULFPORT       CLEAR     82  67  60 CALM      29.99R
$$



USA.gov is the U.S. government's official web portal to all federal, state and local government web resources and services.